电子元件PCB SCH 3D图形库.zip
下载
PCB 3D 电子
查看(9)

所属分类:开发技术 > 其它
文件大小:61.23 MB
上传日期:2022-05-13 14:57
MD5:3fbf6ac7d5************2c73a320c6
资源说明:电子元件PCB SCH 3D图形库,protel元件,用于电子设计。

[资源合计] 文件夹:13,文件:161

# 文件名称 大小 最后修改时间
1 3m 0 Bytes 2022/5/10 14:48:13
2 3m\3M Card CompactFlash.IntLib 15.5 KB 2014/9/15 9:07:42
3 3m\3M Footprints.PcbLib 47 KB 2014/9/15 9:07:44
4 Actel 0 Bytes 2022/5/10 14:48:20
5 Actel\Actel 3200DX.IntLib 108 KB 2014/9/15 9:07:36
6 Actel\Actel 40MX.IntLib 240 KB 2014/9/15 9:07:36
7 Actel\Actel 42MX.IntLib 542 KB 2014/9/15 9:07:36
8 Actel\Actel ACT 1.IntLib 515.5 KB 2014/9/15 9:07:36
9 Actel\Actel ACT 2.IntLib 382.5 KB 2014/9/15 9:07:36
10 Actel\Actel ACT 3.IntLib 793 KB 2014/9/15 9:07:36
11 Actel\Actel Axcelerator.IntLib 723 KB 2014/9/15 9:07:36
12 Actel\Actel eX.IntLib 139.5 KB 2014/9/15 9:07:36
13 Actel\Actel Footprints.PcbLib 3.32 MB 2014/9/15 9:07:38
14 Actel\Actel Fusion FPGA.IntLib 108 KB 2014/9/15 9:07:38
15 Actel\Actel Fusion.IntLib 1.84 MB 2014/9/15 9:07:38
16 Actel\Actel IGLOO FPGA.IntLib 107 KB 2014/9/15 9:07:40
17 Actel\Actel IGLOO nano.IntLib 245 KB 2014/9/15 9:07:40
18 Actel\Actel IGLOO PLUS.IntLib 233 KB 2014/9/15 9:07:40
19 Actel\Actel IGLOO.IntLib 947 KB 2014/9/15 9:07:40
20 Actel\Actel IGLOOE FPGA.IntLib 109.5 KB 2014/9/15 9:07:40
21 Actel\Actel IGLOOe.IntLib 519.5 KB 2014/9/15 9:07:40
22 Actel\Actel IGLOOnano FPGA.IntLib 107 KB 2014/9/15 9:07:40
23 Actel\Actel IGLOOPLUS FPGA.IntLib 88.5 KB 2014/9/15 9:07:40
24 Actel\Actel ProASIC 500K.IntLib 217.5 KB 2014/9/15 9:07:40
25 Actel\Actel ProASIC A500K FPGA.IntLib 75.5 KB 2014/9/15 9:07:40
26 Actel\Actel ProASIC APA FPGA.IntLib 109 KB 2014/9/15 9:07:40
27 Actel\Actel ProASIC PLUS.IntLib 904 KB 2014/9/15 9:07:40
28 Actel\Actel ProASIC3 FPGA.IntLib 83 KB 2014/9/15 9:07:40
29 Actel\Actel ProASIC3 nano.IntLib 130 KB 2014/9/15 9:07:40
30 Actel\Actel ProASIC3.IntLib 1.41 MB 2014/9/15 9:07:40
31 Actel\Actel ProASIC3E FPGA.IntLib 95 KB 2014/9/15 9:07:42
32 Actel\Actel ProASIC3E.IntLib 1.12 MB 2014/9/15 9:07:42
33 Actel\Actel ProASIC3L.IntLib 856 KB 2014/9/15 9:07:42
34 Actel\Actel SX-A.IntLib 512 KB 2014/9/15 9:07:42
35 Actel\Actel SX-S.IntLib 142.5 KB 2014/9/15 9:07:42
36 Actel\Actel SX.IntLib 520.5 KB 2014/9/15 9:07:42
37 Agilent Technologies 0 Bytes 2022/5/10 14:48:20
38 Agilent Technologies\Agilent LED Display 7-Segment, 1-Digit.IntLib 240.5 KB 2014/9/15 9:07:34
39 Agilent Technologies\Agilent LED Display 7-Segment, 2-Digit.IntLib 55.5 KB 2014/9/15 9:07:34
40 Agilent Technologies\Agilent LED Display 7-Segment, 3-Digit.IntLib 15.5 KB 2014/9/15 9:07:34
41 Agilent Technologies\Agilent LED Display 7-Segment, 4-Digit.IntLib 30.5 KB 2014/9/15 9:07:34
42 Agilent Technologies\Agilent LED Display Alphanumeric.IntLib 13.5 KB 2014/9/15 9:07:34
43 Agilent Technologies\Agilent LED Display Digit & Word Icon.IntLib 24 KB 2014/9/15 9:07:34
44 Agilent Technologies\Agilent LED Display Overflow.IntLib 87 KB 2014/9/15 9:07:34
45 Agilent Technologies\Agilent Optoelectronic LED.IntLib 170.5 KB 2014/9/15 9:07:34
46 Allegro 0 Bytes 2022/5/10 14:48:21
47 Allegro\Allegro Amplifier Power Amplifier.IntLib 47 KB 2014/9/15 9:07:32
48 Allegro\Allegro Analog Timer Circuit.IntLib 47 KB 2014/9/15 9:07:32
49 Allegro\Allegro Automotive Bus Line Driver Receiver.IntLib 89 KB 2014/9/15 9:07:32
50 Allegro\Allegro Automotive Ignition Circuit.IntLib 121.5 KB 2014/9/15 9:07:32
51 Allegro\Allegro Footprints.PcbLib 338 KB 2014/9/15 9:07:32
52 Allegro\Allegro Interface Darlington Driver.IntLib 169.5 KB 2014/9/15 9:07:32
53 Allegro\Allegro Interface DC & Stepper Motor Controller.IntLib 221.5 KB 2014/9/15 9:07:32
54 Allegro\Allegro Interface DC Motor Controller Driver.IntLib 215.5 KB 2014/9/15 9:07:32
55 Allegro\Allegro Interface LED Driver.IntLib 122 KB 2014/9/15 9:07:34
56 Allegro\Allegro Interface Peripheral Driver.IntLib 548.5 KB 2014/9/15 9:07:34
57 Allegro\Allegro Interface Printer Driver.IntLib 175 KB 2014/9/15 9:07:34
58 Allegro\Allegro Interface Servo Motor Controller Driver.IntLib 52.5 KB 2014/9/15 9:07:34
59 Allegro\Allegro Interface Stepper Motor Controller Driver.IntLib 95.5 KB 2014/9/15 9:07:34
60 Allegro\Allegro Interface Vacuum Fluorescent Display Driver.IntLib 341.5 KB 2014/9/15 9:07:34
61 Allegro\Allegro Power Mgt Voltage Detector.IntLib 48 KB 2014/9/15 9:07:34
62 Allegro\Allegro Power Mgt Voltage Regulator.IntLib 121.5 KB 2014/9/15 9:07:34
63 Allegro\Allegro RF and IF Noise Reduction Circuit.IntLib 48.5 KB 2014/9/15 9:07:34
64 Allegro\Allegro RF and IF Radio Receiver Circuit.IntLib 85 KB 2014/9/15 9:07:34
65 Allegro\Allegro Sensor Fluid Detector.IntLib 47 KB 2014/9/15 9:07:34
66 Allegro\Allegro Sensor Hall-Effect Sensor.IntLib 45 KB 2014/9/15 9:07:34
67 Allegro\Allegro Sensor Smoke Detector.IntLib 47 KB 2014/9/15 9:07:34
68 Alpha Microelectronics 0 Bytes 2022/5/10 14:48:21
69 Alpha Microelectronics\ALPHA Audio Processor.IntLib 29.5 KB 2014/9/15 9:07:32
70 Altera 0 Bytes 2022/5/10 14:48:36
71 Altera\Altera ACEX 1K.IntLib 471.5 KB 2014/9/15 9:07:12
72 Altera\Altera APEX 20K.IntLib 591.5 KB 2014/9/15 9:07:12
73 Altera\Altera APEX 20KC.IntLib 690 KB 2014/9/15 9:07:14
74 Altera\Altera APEX 20KE.IntLib 1.84 MB 2014/9/15 9:07:14
75 Altera\Altera Apex II.IntLib 681.5 KB 2014/9/15 9:07:14
76 Altera\Altera Arria GX.IntLib 1.06 MB 2014/9/15 9:07:14
77 Altera\Altera Bus Interface Controller.IntLib 92 KB 2014/9/15 9:07:14
78 Altera\Altera Classic EP.IntLib 342.5 KB 2014/9/15 9:07:14
79 Altera\Altera Cyclone II.IntLib 2.15 MB 2014/9/15 9:07:16
80 Altera\Altera Cyclone III.IntLib 1.45 MB 2014/9/15 9:07:16
81 Altera\Altera Cyclone.IntLib 312 KB 2014/9/15 9:07:16
82 Altera\Altera EPC Configuration Device.IntLib 823 KB 2014/9/15 9:07:16
83 Altera\Altera EPCS Configuration Device.IntLib 806 KB 2014/9/15 9:07:18
84 Altera\Altera FLEX 10K.IntLib 1.24 MB 2014/9/15 9:07:18
85 Altera\Altera FLEX 6000.IntLib 254 KB 2014/9/15 9:07:18
86 Altera\Altera FLEX 8000.IntLib 466.5 KB 2014/9/15 9:07:18
87 Altera\Altera Footprints.PcbLib 3.81 MB 2014/9/15 9:07:18
88 Altera\Altera FPGA.IntLib 134.5 KB 2014/9/15 9:07:20
89 Altera\Altera MAX 3000A.IntLib 500.5 KB 2014/9/15 9:07:20
90 Altera\Altera MAX 5000.IntLib 310.5 KB 2014/9/15 9:07:20
91 Altera\Altera MAX 7000AE.IntLib 988.5 KB 2014/9/15 9:07:20
92 Altera\Altera MAX 7000B.IntLib 543.5 KB 2014/9/15 9:07:20
93 Altera\Altera MAX 7000S 0 Bytes 2022/5/10 14:48:37
94 Altera\Altera MAX 7000S.IntLib 1.02 MB 2014/9/15 9:07:22
95 Altera\Altera MAX 7000S\Altera MAX 7000S.PCB3DLib 1.72 MB 2014/9/15 9:07:28
96 Altera\Altera MAX 7000S\Altera MAX 7000S.PcbLib 599 KB 2014/9/15 9:07:30
97 Altera\Altera MAX 7000S\Altera MAX 7000S.PcbLib.htm 4.47 KB 2014/9/15 9:07:30
98 Altera\Altera MAX 7000S\Altera MAX 7000S.SchLib 4.99 MB 2014/9/15 9:07:30
99 Altera\Altera MAX 9000.IntLib 347.5 KB 2014/9/15 9:07:22
100 Altera\Altera MAX II.IntLib 1012 KB 2014/9/15 9:07:22
101 Altera\Altera Megafunctions FPGA.IntLib 40.5 KB 2014/9/15 9:07:22
102 Altera\Altera Mercury.IntLib 217 KB 2014/9/15 9:07:22
103 Altera\Altera Stratix GX.IntLib 1.61 MB 2014/9/15 9:07:22
104 Altera\Altera Stratix II GX.IntLib 1.12 MB 2014/9/15 9:07:22
105 Altera\Altera Stratix II.IntLib 3.19 MB 2014/9/15 9:07:24
106 Altera\Altera Stratix III.IntLib 4.07 MB 2014/9/15 9:07:24
107 Altera\Altera Stratix.IntLib 5.16 MB 2014/9/15 9:07:26
108 Amcc 0 Bytes 2022/5/10 14:48:39
109 Amcc\AMCC Footprints.PcbLib 1.09 MB 2014/9/15 9:07:12
110 Amcc\AMCC PowerPC 405.IntLib 452.5 KB 2014/9/15 9:07:12
111 Amcc\AMCC PowerPC 440.IntLib 584 KB 2014/9/15 9:07:12
112 Amp 0 Bytes 2022/5/10 14:48:45
113 Amphenol 0 Bytes 2022/5/10 14:48:45
114 Amphenol\Amphenol Footprints.PcbLib 60.5 KB 2014/9/15 9:07:04
115 Amphenol\Amphenol RF Coaxial MCX.IntLib 10.5 KB 2014/9/15 9:07:04
116 Amphenol\Amphenol RF Coaxial MMCX.IntLib 16 KB 2014/9/15 9:07:04
117 Amp\AMP Card Edge 050 Series PCI.IntLib 227.5 KB 2014/9/15 9:07:04
118 Amp\AMP CHAMP Miniature Ribbon 050 Series II.IntLib 485 KB 2014/9/15 9:07:04
119 Amp\AMP CompactPCI Type A.IntLib 110.5 KB 2014/9/15 9:07:04
120 Amp\AMP CompactPCI Type A_B.IntLib 22 KB 2014/9/15 9:07:04
121 Amp\AMP CompactPCI Type B.IntLib 151 KB 2014/9/15 9:07:04
122 Amp\AMP CompactPCI Type C.IntLib 19 KB 2014/9/15 9:07:04
123 Amp\AMP CompactPCI Type D.IntLib 84 KB 2014/9/15 9:07:04
124 Amp\AMP CompactPCI Type E.IntLib 84 KB 2014/9/15 9:07:04
125 Amp\AMP CompactPCI Type F.IntLib 48 KB 2014/9/15 9:07:04
126 Amp\AMP CompactPCI Type M.IntLib 21.5 KB 2014/9/15 9:07:04
127 Amp\AMP D Subminiature 050 Series.IntLib 536 KB 2014/9/15 9:07:04
128 Amp\AMP D Subminiature AMPLIMITE 2000.IntLib 35.5 KB 2014/9/15 9:07:06
129 Amp\AMP Footprints.PcbLib 12.63 MB 2014/9/15 9:07:06
130 Amp\AMP High-Speed MICTOR.IntLib 598 KB 2014/9/15 9:07:10
131 Amp\AMP Memory Module DIMM II.IntLib 277 KB 2014/9/15 9:07:10
132 Amp\AMP Memory Module DIMM.IntLib 81 KB 2014/9/15 9:07:10
133 Amp\AMP Memory Module SIMM II.IntLib 37.5 KB 2014/9/15 9:07:10
134 Amp\AMP Memory Module SIMM.IntLib 40.5 KB 2014/9/15 9:07:10
135 Amp\AMP Serial Bus IEEE1394.IntLib 15.5 KB 2014/9/15 9:07:10
136 Amp\AMP Serial Bus USB.IntLib 65.5 KB 2014/9/15 9:07:10
137 Analog Devices 0 Bytes 2022/5/10 14:48:48
138 Analog Devices\AD Amplifier Buffer.IntLib 262.5 KB 2014/9/15 9:06:58
139 Analog Devices\AD Analog Comparator.IntLib 254.5 KB 2014/9/15 9:06:58
140 Analog Devices\AD Analog Multiplier Divider.IntLib 249 KB 2014/9/15 9:06:58
141 Analog Devices\AD Audio Pre-Amplifier.IntLib 262 KB 2014/9/15 9:06:58
142 Analog Devices\AD Comm Clock Data Recovery.IntLib 19 KB 2014/9/15 9:06:58
143 Analog Devices\AD Converter Analog to Digital.IntLib 155 KB 2014/9/15 9:06:58
144 Analog Devices\AD Differential Amplifier.IntLib 255.5 KB 2014/9/15 9:06:58
145 Analog Devices\AD DSP 16-Bit.IntLib 2.14 MB 2014/9/15 9:06:58
146 Analog Devices\AD DSP 32-Bit.IntLib 1020.5 KB 2014/9/15 9:07:00
147 Analog Devices\AD Instrumentation Amplifier.IntLib 368 KB 2014/9/15 9:07:00
148 Analog Devices\AD Logarithmic Amplifier.IntLib 261 KB 2014/9/15 9:07:00
149 Analog Devices\AD Logic Switch.IntLib 14.5 KB 2014/9/15 9:07:00
150 Analog Devices\AD Microcontroller ARM.IntLib 250.5 KB 2014/9/15 9:07:00
151 Analog Devices\AD Operational Amplifier.IntLib 943.5 KB 2014/9/15 9:07:00
152 Analog Devices\AD Power Mgt Charge Pump.IntLib 88 KB 2014/9/15 9:07:00
153 Analog Devices\AD Power Mgt DC-DC Converter.IntLib 15 KB 2014/9/15 9:07:00
154 Analog Devices\AD Power Mgt Supervisory Circuit.IntLib 185.5 KB 2014/9/15 9:07:00
155 Analog Devices\AD Power Mgt Switching Regulator.IntLib 94.5 KB 2014/9/15 9:07:00
156 Analog Devices\AD Power Mgt Voltage Reference.IntLib 274.5 KB 2014/9/15 9:07:00
157 Analog Devices\AD Power Mgt Voltage Regulator.IntLib 102 KB 2014/9/15 9:07:00
158 Analog Devices\AD RF and IF Frequency Synthesiser.IntLib 150.5 KB 2014/9/15 9:07:02
159 Analog Devices\AD RF and IF Mixer.IntLib 54.5 KB 2014/9/15 9:07:02
160 Analog Devices\AD RF and IF Modulator Demodulator.IntLib 116 KB 2014/9/15 9:07:02
161 Analog Devices\AD RF and IF Modulator.IntLib 141.5 KB 2014/9/15 9:07:02
162 Analog Devices\AD Thermocouple Amplifier.IntLib 249.5 KB 2014/9/15 9:07:02
163 Analog Devices\AD Transimpedance Amplifier.IntLib 247.5 KB 2014/9/15 9:07:02
164 Analog Devices\AD Variable Gain Amplifier.IntLib 267 KB 2014/9/15 9:07:02
165 Analog Devices\AD Video Amplifier.IntLib 294 KB 2014/9/15 9:07:02
166 Analog Devices\AD Video Colour Encoder Circuit.IntLib 50 KB 2014/9/15 9:07:02
167 Analog Devices\AD Video HDMI.IntLib 21.5 KB 2014/9/15 9:07:02
168 Analog Devices\AD Video Processor.IntLib 98.5 KB 2014/9/15 9:07:02
169 Analog Devices\AD Voltage Controlled Amplifier.IntLib 257.5 KB 2014/9/15 9:07:02
170 Analog Devices\Analog Devices Footprints.PcbLib 2.61 MB 2014/9/15 9:07:02
171 Antenna Factor 0 Bytes 2022/5/10 14:48:49
172 Antenna Factor\AF RF and IF Antenna.IntLib 10.5 KB 2014/9/15 9:06:58
173 Antenova 0 Bytes 2022/5/10 14:48:49
174 Antenova\Antenova RF and IF Antenna.IntLib 11.5 KB 2014/9/15 9:06:58

请留下有营养的评论,广告灌水一律拉黑处理,谢谢合作!